Previsão horária em Centralnyy

Hoje, 27 Julho, Terça-feira

Tempo Temperatura Precipitação Vento Pressão Humidade
00:00 +20°C° 0 mm 2 m/s 754 mmHg 56%
01:00 +20°C° 0 mm 2 m/s 754 mmHg 58%
02:00 +19°C° 0 mm 2 m/s 754 mmHg 59%
03:00 +19°C° 0 mm 2 m/s 754 mmHg 61%
04:00 +19°C° 0 mm 2 m/s 754 mmHg 62%
05:00 +19°C° 0 mm 2 m/s 754 mmHg 64%
06:00 +20°C° 0 mm 1 m/s 754 mmHg 66%
07:00 +22°C° 0 mm 1 m/s 754 mmHg 59%
08:00 +24°C° 0 mm 1 m/s 754 mmHg 52%
09:00 +26°C° 0 mm 1 m/s 754 mmHg 45%
10:00 +27°C° 0 mm 1 m/s 754 mmHg 42%
11:00 +28°C° 0 mm 2 m/s 754 mmHg 39%
12:00 +29°C° 0 mm 2 m/s 754 mmHg 37%
13:00 +29°C° 0 mm 2 m/s 753 mmHg 37%
14:00 +29°C° 0 mm 2 m/s 753 mmHg 37%
15:00 +29°C° 0 mm 2 m/s 753 mmHg 37%
16:00 +28°C° 0 mm 2 m/s 752 mmHg 39%
17:00 +28°C° 0 mm 2 m/s 752 mmHg 42%
18:00 +28°C° 0 mm 1 m/s 752 mmHg 44%
19:00 +26°C° 0 mm 2 m/s 752 mmHg 50%
20:00 +24°C° 0 mm 2 m/s 752 mmHg 57%
21:00 +21°C° 0 mm 2 m/s 752 mmHg 63%
22:00 +20°C° 0 mm 2 m/s 752 mmHg 67%
23:00 +19°C° 0 mm 2 m/s 752 mmHg 71%

Amanhã, 28 Julho, Quarta-feira

Tempo Temperatura Precipitação Vento Pressão Humidade
00:00 +20°C° 0 mm 1 m/s 752 mmHg 74%
01:00 +18°C° 0 mm 2 m/s 752 mmHg 77%
02:00 +18°C° 0 mm 2 m/s 752 mmHg 80%
03:00 +17°C° 0 mm 2 m/s 752 mmHg 82%
04:00 +18°C° 0 mm 2 m/s 751 mmHg 81%
05:00 +19°C° 0 mm 1 m/s 751 mmHg 80%
06:00 +20°C° 0 mm 1 m/s 751 mmHg 79%
07:00 +22°C° 0 mm 1 m/s 751 mmHg 70%
08:00 +24°C° 0 mm 1 m/s 751 mmHg 62%
09:00 +26°C° 0 mm 2 m/s 751 mmHg 53%
10:00 +28°C° 0 mm 2 m/s 751 mmHg 48%
11:00 +29°C° 0 mm 2 m/s 750 mmHg 43%
12:00 +30°C° 0 mm 2 m/s 750 mmHg 38%
13:00 +31°C° 0 mm 2 m/s 750 mmHg 37%
14:00 +31°C° 0 mm 2 m/s 749 mmHg 36%
15:00 +31°C° 0 mm 2 m/s 749 mmHg 36%
16:00 +29°C° 0.2 mm 2 m/s 749 mmHg 45%
17:00 +27°C° 0.2 mm 2 m/s 749 mmHg 55%
18:00 +24°C° 0.2 mm 2 m/s 749 mmHg 64%
19:00 +23°C° 0 mm 2 m/s 749 mmHg 70%
20:00 +21°C° 0 mm 2 m/s 749 mmHg 75%
21:00 +21°C° 0 mm 1 m/s 749 mmHg 81%
22:00 +20°C° 0 mm 2 m/s 748 mmHg 79%
23:00 +20°C° 0 mm 2 m/s 748 mmHg 78%

Depois de amanhã, 29 Julho, Quinta-feira

Tempo Temperatura Precipitação Vento Pressão Humidade
00:00 +20°C° 0 mm 2 m/s 747 mmHg 76%
01:00 +20°C° 0.1 mm 3 m/s 747 mmHg 77%
02:00 +20°C° 0.1 mm 3 m/s 747 mmHg 79%
03:00 +20°C° 0.1 mm 3 m/s 746 mmHg 80%
04:00 +20°C° 0 mm 3 m/s 746 mmHg 79%
05:00 +20°C° 0 mm 3 m/s 745 mmHg 78%
06:00 +20°C° 0 mm 3 m/s 745 mmHg 78%
07:00 +22°C° 0 mm 4 m/s 745 mmHg 71%
08:00 +25°C° 0 mm 5 m/s 744 mmHg 64%
09:00 +27°C° 0 mm 6 m/s 744 mmHg 57%
10:00 +28°C° 0 mm 6 m/s 744 mmHg 53%
11:00 +29°C° 0 mm 6 m/s 744 mmHg 49%
12:00 +30°C° 0 mm 6 m/s 744 mmHg 46%
13:00 +32°C° 0 mm 6 m/s 743 mmHg 43%
14:00 +32°C° 0 mm 6 m/s 743 mmHg 40%
15:00 +33°C° 0 mm 7 m/s 743 mmHg 38%
16:00 +32°C° 0 mm 6 m/s 743 mmHg 42%
17:00 +30°C° 0 mm 6 m/s 743 mmHg 46%
18:00 +29°C° 0 mm 5 m/s 743 mmHg 51%
19:00 +27°C° 0 mm 4 m/s 743 mmHg 58%
20:00 +25°C° 0 mm 2 m/s 743 mmHg 65%
21:00 +23°C° 0 mm 1 m/s 744 mmHg 72%
22:00 +23°C° 0 mm 1 m/s 744 mmHg 73%
23:00 +22°C° 0 mm 1 m/s 744 mmHg 74%

30 Julho, Sexta-feira

Tempo Temperatura Precipitação Vento Pressão Humidade
00:00 +22°C° 0 mm 1 m/s 744 mmHg 75%
01:00 +21°C° 0 mm 2 m/s 744 mmHg 75%
02:00 +21°C° 0 mm 2 m/s 744 mmHg 76%
03:00 +20°C° 0 mm 2 m/s 744 mmHg 76%
04:00 +21°C° 0 mm 2 m/s 744 mmHg 75%
05:00 +21°C° 0 mm 2 m/s 744 mmHg 73%
06:00 +23°C° 0 mm 2 m/s 744 mmHg 72%
07:00 +24°C° 0 mm 2 m/s 744 mmHg 67%
08:00 +26°C° 0 mm 2 m/s 744 mmHg 61%
09:00 +27°C° 0 mm 2 m/s 744 mmHg 56%
10:00 +28°C° 0 mm 2 m/s 744 mmHg 53%
11:00 +29°C° 0 mm 3 m/s 744 mmHg 50%
12:00 +30°C° 0 mm 3 m/s 744 mmHg 47%
13:00 +30°C° 0 mm 3 m/s 744 mmHg 49%
14:00 +29°C° 0 mm 3 m/s 744 mmHg 50%
15:00 +29°C° 0 mm 3 m/s 744 mmHg 52%
16:00 +29°C° 0 mm 2 m/s 744 mmHg 53%
17:00 +29°C° 0 mm 2 m/s 744 mmHg 54%
18:00 +29°C° 0 mm 2 m/s 744 mmHg 55%
19:00 +27°C° 0 mm 2 m/s 744 mmHg 59%
20:00 +26°C° 0 mm 1 m/s 744 mmHg 62%
21:00 +25°C° 0 mm 1 m/s 744 mmHg 66%
22:00 +24°C° 0.1 mm 1 m/s 744 mmHg 69%
23:00 +24°C° 0.1 mm 2 m/s 744 mmHg 72%

31 Julho, Sábado

Tempo Temperatura Precipitação Vento Pressão Humidade
00:00 +23°C° 0.1 mm 2 m/s 744 mmHg 75%
01:00 +23°C° 0 mm 2 m/s 744 mmHg 75%
02:00 +23°C° 0 mm 2 m/s 744 mmHg 75%
03:00 +21°C° 0 mm 2 m/s 744 mmHg 75%
04:00 +23°C° 0 mm 2 m/s 744 mmHg 74%
05:00 +23°C° 0 mm 2 m/s 745 mmHg 73%
06:00 +23°C° 0 mm 2 m/s 745 mmHg 72%
07:00 +25°C° 0 mm 2 m/s 745 mmHg 63%
08:00 +27°C° 0 mm 2 m/s 745 mmHg 54%
09:00 +29°C° 0 mm 2 m/s 745 mmHg 45%
10:00 +30°C° 0 mm 3 m/s 745 mmHg 40%
11:00 +31°C° 0 mm 3 m/s 745 mmHg 35%
12:00 +33°C° 0 mm 3 m/s 745 mmHg 30%
13:00 +33°C° 0 mm 4 m/s 744 mmHg 30%
14:00 +34°C° 0 mm 4 m/s 744 mmHg 29%
15:00 +34°C° 0 mm 4 m/s 744 mmHg 29%
16:00 +34°C° 0 mm 4 m/s 744 mmHg 30%
17:00 +33°C° 0 mm 4 m/s 744 mmHg 31%
18:00 +33°C° 0 mm 3 m/s 744 mmHg 33%
19:00 +30°C° 0 mm 3 m/s 744 mmHg 37%
20:00 +28°C° 0 mm 3 m/s 745 mmHg 41%
21:00 +26°C° 0 mm 3 m/s 745 mmHg 44%
22:00 +25°C° 0 mm 2 m/s 745 mmHg 48%
23:00 +25°C° 0 mm 2 m/s 745 mmHg 51%

1 Agosto, Domingo

Tempo Temperatura Precipitação Vento Pressão Humidade
00:00 +24°C° 0 mm 1 m/s 745 mmHg 54%
01:00 +23°C° 0 mm 1 m/s 745 mmHg 56%
02:00 +23°C° 0 mm 1 m/s 745 mmHg 58%
03:00 +22°C° 0 mm 1 m/s 745 mmHg 60%
04:00 +23°C° 0 mm 2 m/s 745 mmHg 60%
05:00 +23°C° 0 mm 2 m/s 745 mmHg 59%
06:00 +23°C° 0 mm 2 m/s 745 mmHg 59%
07:00 +25°C° 0 mm 3 m/s 745 mmHg 52%
08:00 +28°C° 0 mm 4 m/s 745 mmHg 45%
09:00 +32°C° 0 mm 5 m/s 744 mmHg 37%
10:00 +33°C° 0 mm 5 m/s 744 mmHg 34%
11:00 +34°C° 0 mm 6 m/s 744 mmHg 31%
12:00 +36°C° 0 mm 7 m/s 744 mmHg 28%
13:00 +36°C° 0 mm 7 m/s 743 mmHg 29%
14:00 +36°C° 0 mm 6 m/s 743 mmHg 29%
15:00 +35°C° 0 mm 6 m/s 742 mmHg 30%
16:00 +35°C° 0.1 mm 5 m/s 742 mmHg 34%
17:00 +34°C° 0.1 mm 5 m/s 742 mmHg 38%
18:00 +33°C° 0.1 mm 4 m/s 742 mmHg 42%
19:00 +29°C° 0.6 mm 4 m/s 743 mmHg 56%
20:00 +26°C° 0.6 mm 3 m/s 743 mmHg 69%
21:00 +22°C° 0.6 mm 3 m/s 744 mmHg 83%
22:00 +22°C° 0.1 mm 3 m/s 744 mmHg 84%
23:00 +21°C° 0.1 mm 2 m/s 744 mmHg 85%
Mostrar mais

Necessitamos do seu Consentimento

A Meteoprog e os seus Fornecedores de Serviços podem armazenar e aceder a dados pessoais como cookies, identificadores do dispositivo ou outras tecnologias semelhantes existentes no seu dispositivo e processar estes dados para personalizar conteúdos e anúncios, assim como funcionalidades nas redes sociais e análise de tráfego.

  • Armazenar e/ou aceder a informações no seu dispositivo

    Os cookies, identificadores do dispositivo ou outras informações podem ser armazenados ou acedidos no seu dispositivo, para os fins acima indicados.

  • Anúncios e conteúdos personalizados, medição de anúncios e conteúdos, dados sobre o público-alvo e desenvolvimento de produtos

    Os anúncios e os conteúdos podem ser personalizados com base num perfil. Podem ser adicionados dados adicionais para uma maior personalização dos anúncios e dos conteúdos. A eficácia dos anúncios e dos conteúdos pode ser medida. Podem ser obtidas informações sobre o público que visualizou os anúncios e os conteúdos. Estes dados podem ser usados para desenvolver ou melhorar sistemas, softwares ou a experiência do utilizador.

Ao clicar em "Eu concordo”, permitirá o uso de cookies, identificadores do dispositivo e web beacons mencionados ou outras tecnologias semelhantes. As configurações do navegador do seu dispositivo podem ser alteradas.

Para certos fins, podem ser invocados interesses legítimos ao invés de consentimento. Pode ler mais informação sobre este assunto na nossa Política de Privacidade e Cookies.